When you browse on this site, cookies collect data to enhance your experience and personalize the content and advertising you see.
Visit our Privacy Policy to learn more. By continuing to use the site, you agree to this use of cookies and data.
  • En España
  • Lista de países
  • Para 7 días
  • Temperatura del agua
  • El tiempo en el mapa
  • Informadores
  • user-avatar
    Iniciar sesión

    Tiempo cada hora Klagenfurt

    Hoy, 30 Marzo, Lunes

    Tiempo Temperatura Precipitaciones Viento Presión Humedad
    00:00 +5°C° 1.8 mm 1 mps 688 mmHg 95%
    01:00 +4°C° 1.8 mm 1 mps 688 mmHg 96%
    02:00 +4°C° 0.9 mm 1 mps 688 mmHg 97%
    03:00 +4°C° 0.9 mm 1 mps 688 mmHg 97%
    04:00 +3°C° 0.9 mm 1 mps 688 mmHg 97%
    05:00 +3°C° 1.5 mm 1 mps 688 mmHg 97%
    06:00 +2°C° 1.5 mm 1 mps 688 mmHg 97%
    07:00 +2°C° 1.5 mm 1 mps 688 mmHg 97%
    08:00 +2°C° 0.8 mm 1 mps 689 mmHg 96%
    09:00 +2°C° 0.8 mm 1 mps 689 mmHg 95%
    10:00 +3°C° 0.8 mm 1 mps 689 mmHg 94%
    11:00 +3°C° 0.4 mm 1 mps 689 mmHg 93%
    12:00 +3°C° 0.4 mm 1 mps 689 mmHg 92%
    13:00 +3°C° 0.4 mm 1 mps 689 mmHg 92%
    14:00 +3°C° 0.7 mm 1 mps 689 mmHg 92%
    15:00 +2°C° 0.7 mm 2 mps 689 mmHg 93%
    16:00 +1°C° 0.7 mm 2 mps 689 mmHg 93%
    17:00 +1°C° 0.6 mm 2 mps 689 mmHg 93%
    18:00 -1°C° 0.6 mm 2 mps 689 mmHg 93%
    19:00 0°C° 0.6 mm 1 mps 689 mmHg 93%
    20:00 0°C° 0.3 mm 1 mps 690 mmHg 91%
    21:00 -1°C° 0.3 mm 1 mps 690 mmHg 90%
    22:00 -1°C° 0.3 mm 1 mps 691 mmHg 89%
    23:00 -2°C° 0 mm 1 mps 691 mmHg 89%

    Mañana, 31 Marzo, Martes

    Tiempo Temperatura Precipitaciones Viento Presión Humedad
    00:00 -2°C° 0 mm 1 mps 691 mmHg 88%
    01:00 -3°C° 0 mm 1 mps 691 mmHg 88%
    02:00 -3°C° 0 mm 1 mps 691 mmHg 88%
    03:00 -4°C° 0 mm 1 mps 691 mmHg 87%
    04:00 -6°C° 0 mm 1 mps 691 mmHg 87%
    05:00 -4°C° 0 mm 1 mps 691 mmHg 85%
    06:00 -4°C° 0 mm 1 mps 691 mmHg 83%
    07:00 -4°C° 0 mm 1 mps 691 mmHg 82%
    08:00 -2°C° 0 mm 1 mps 691 mmHg 74%
    09:00 -2°C° 0 mm 2 mps 692 mmHg 67%
    10:00 +1°C° 0 mm 2 mps 692 mmHg 59%
    11:00 +2°C° 0 mm 2 mps 692 mmHg 58%
    12:00 +3°C° 0 mm 2 mps 692 mmHg 56%
    13:00 +4°C° 0 mm 2 mps 692 mmHg 55%
    14:00 +3°C° 0.1 mm 2 mps 691 mmHg 56%
    15:00 +3°C° 0.1 mm 2 mps 691 mmHg 58%
    16:00 +3°C° 0.1 mm 2 mps 691 mmHg 60%
    17:00 +2°C° 0.1 mm 1 mps 691 mmHg 67%
    18:00 +1°C° 0.1 mm 1 mps 691 mmHg 73%
    19:00 -1°C° 0.1 mm 1 mps 691 mmHg 80%
    20:00 -2°C° 0 mm 1 mps 692 mmHg 82%
    21:00 -2°C° 0 mm 1 mps 692 mmHg 84%
    22:00 -3°C° 0 mm 1 mps 693 mmHg 86%
    23:00 -3°C° 0 mm 1 mps 693 mmHg 87%

    Pasado mañana, 1 Abril, Miércoles

    Tiempo Temperatura Precipitaciones Viento Presión Humedad
    00:00 -3°C° 0 mm 1 mps 692 mmHg 88%
    01:00 -3°C° 0 mm 1 mps 692 mmHg 89%
    02:00 -4°C° 0 mm 1 mps 692 mmHg 89%
    03:00 -4°C° 0 mm 1 mps 692 mmHg 90%
    04:00 -4°C° 0 mm 1 mps 692 mmHg 90%
    05:00 -4°C° 0 mm 1 mps 692 mmHg 88%
    06:00 -3°C° 0 mm 1 mps 692 mmHg 86%
    07:00 -4°C° 0 mm 0 mps 692 mmHg 84%
    08:00 -1°C° 0 mm 1 mps 692 mmHg 76%
    09:00 +1°C° 0 mm 1 mps 692 mmHg 69%
    10:00 +3°C° 0 mm 1 mps 691 mmHg 62%
    11:00 +4°C° 0 mm 1 mps 691 mmHg 59%
    12:00 +5°C° 0 mm 1 mps 691 mmHg 55%
    13:00 +6°C° 0 mm 1 mps 691 mmHg 52%
    14:00 +6°C° 0 mm 1 mps 690 mmHg 52%
    15:00 +6°C° 0 mm 1 mps 690 mmHg 52%
    16:00 +6°C° 0 mm 1 mps 689 mmHg 51%
    17:00 +4°C° 0 mm 1 mps 689 mmHg 58%
    18:00 +1°C° 0 mm 1 mps 688 mmHg 64%
    19:00 -1°C° 0 mm 1 mps 688 mmHg 70%
    20:00 -1°C° 0 mm 1 mps 688 mmHg 71%
    21:00 -1°C° 0 mm 1 mps 688 mmHg 72%
    22:00 -2°C° 0 mm 1 mps 688 mmHg 72%
    23:00 -2°C° 0 mm 1 mps 688 mmHg 72%

    2 Abril, Jueves

    Tiempo Temperatura Precipitaciones Viento Presión Humedad
    00:00 -2°C° 0 mm 1 mps 688 mmHg 72%
    01:00 -3°C° 0 mm 0 mps 688 mmHg 72%
    02:00 -4°C° 0 mm 0 mps 687 mmHg 73%
    03:00 -4°C° 0 mm 0 mps 687 mmHg 73%
    04:00 -4°C° 0 mm 0 mps 686 mmHg 74%
    05:00 -3°C° 0 mm 0 mps 687 mmHg 72%
    06:00 -2°C° 0 mm 0 mps 687 mmHg 70%
    07:00 -1°C° 0 mm 0 mps 687 mmHg 68%
    08:00 +1°C° 0 mm 0 mps 687 mmHg 63%
    09:00 +3°C° 0 mm 0 mps 687 mmHg 58%
    10:00 +6°C° 0 mm 0 mps 687 mmHg 54%
    11:00 +8°C° 0 mm 1 mps 687 mmHg 53%
    12:00 +9°C° 0 mm 1 mps 687 mmHg 51%
    13:00 +10°C° 0 mm 1 mps 687 mmHg 50%
    14:00 +10°C° 0 mm 1 mps 687 mmHg 52%
    15:00 +9°C° 0 mm 1 mps 686 mmHg 53%
    16:00 +9°C° 0 mm 1 mps 685 mmHg 55%
    17:00 +7°C° 0 mm 1 mps 685 mmHg 63%
    18:00 +4°C° 0 mm 1 mps 685 mmHg 70%
    19:00 +2°C° 0 mm 1 mps 684 mmHg 78%
    20:00 +2°C° 0 mm 1 mps 685 mmHg 80%
    21:00 +1°C° 0 mm 1 mps 685 mmHg 81%
    22:00 +1°C° 0 mm 1 mps 685 mmHg 82%
    23:00 0°C° 0 mm 1 mps 685 mmHg 83%

    3 Abril, Viernes

    Tiempo Temperatura Precipitaciones Viento Presión Humedad
    00:00 0°C° 0 mm 1 mps 685 mmHg 84%
    01:00 0°C° 0 mm 1 mps 684 mmHg 85%
    02:00 0°C° 0 mm 1 mps 684 mmHg 86%
    03:00 -1°C° 0 mm 1 mps 684 mmHg 86%
    04:00 -1°C° 0 mm 1 mps 684 mmHg 87%
    05:00 0°C° 0 mm 1 mps 684 mmHg 83%
    06:00 0°C° 0 mm 0 mps 685 mmHg 80%
    07:00 +1°C° 0 mm 0 mps 685 mmHg 77%
    08:00 +3°C° 0 mm 0 mps 685 mmHg 71%
    09:00 +6°C° 0 mm 0 mps 686 mmHg 66%
    10:00 +9°C° 0 mm 0 mps 686 mmHg 60%
    11:00 +10°C° 0 mm 1 mps 686 mmHg 58%
    12:00 +11°C° 0 mm 1 mps 686 mmHg 56%
    13:00 +12°C° 0 mm 1 mps 686 mmHg 54%
    14:00 +12°C° 0.1 mm 1 mps 686 mmHg 55%
    15:00 +10°C° 0.1 mm 0 mps 686 mmHg 56%
    16:00 +10°C° 0.1 mm 0 mps 686 mmHg 58%
    17:00 +9°C° 0.1 mm 1 mps 686 mmHg 66%
    18:00 +7°C° 0.1 mm 1 mps 686 mmHg 75%
    19:00 +5°C° 0.1 mm 1 mps 686 mmHg 83%
    20:00 +4°C° 0.1 mm 1 mps 687 mmHg 84%
    21:00 +4°C° 0.1 mm 1 mps 687 mmHg 85%
    22:00 +3°C° 0.1 mm 1 mps 688 mmHg 86%
    23:00 +3°C° 0 mm 1 mps 688 mmHg 86%

    4 Abril, Sábado

    Tiempo Temperatura Precipitaciones Viento Presión Humedad
    00:00 +2°C° 0 mm 1 mps 689 mmHg 87%
    01:00 +2°C° 0 mm 1 mps 689 mmHg 87%
    02:00 +2°C° 0 mm 1 mps 689 mmHg 87%
    03:00 +1°C° 0 mm 1 mps 689 mmHg 87%
    04:00 +1°C° 0 mm 1 mps 690 mmHg 87%
    05:00 +2°C° 0 mm 1 mps 690 mmHg 86%
    06:00 +2°C° 0 mm 1 mps 691 mmHg 85%
    07:00 +2°C° 0 mm 0 mps 692 mmHg 83%
    08:00 +4°C° 0 mm 1 mps 692 mmHg 80%
    09:00 +5°C° 0 mm 1 mps 692 mmHg 77%
    10:00 +6°C° 0 mm 1 mps 693 mmHg 74%
    11:00 +7°C° 0 mm 1 mps 693 mmHg 71%
    12:00 +8°C° 0 mm 1 mps 693 mmHg 69%
    13:00 +8°C° 0 mm 1 mps 693 mmHg 66%
    14:00 +8°C° 0 mm 1 mps 693 mmHg 67%
    15:00 +8°C° 0 mm 1 mps 693 mmHg 67%
    16:00 +8°C° 0 mm 1 mps 693 mmHg 67%
    17:00 +7°C° 0 mm 1 mps 693 mmHg 73%
    18:00 +5°C° 0 mm 1 mps 693 mmHg 80%
    19:00 +3°C° 0 mm 1 mps 693 mmHg 86%
    20:00 +3°C° 0 mm 1 mps 694 mmHg 86%
    21:00 +3°C° 0 mm 1 mps 695 mmHg 86%
    22:00 +2°C° 0 mm 1 mps 695 mmHg 86%
    23:00 +1°C° 0 mm 0 mps 696 mmHg 86%
    Mostrar más